GW4608 Weather Reports


time (UTC)temp
C
wind
direction
speed
KPH
gust
KPH
rain 1hr
cm
rain 24hr
cm
rain mn
cm
humidity
%
barometer
mb
20260502221106 11 284 3.2 9.7 0.00 0.00 0.00 43 1014.3
20260502220603 11 336 6.4 11.3 0.00 0.00 0.00 44 1014.2
20260502220058 11 285 6.4 9.7 0.00 0.00 0.00 42 1014.2
20260502215556 11 7 6.4 9.7 0.00 0.00 0.00 44 1013.9
20260502215053 12 354 8.0 16.1 0.00 0.00 0.00 42 1014.1
20260502214549 12 264 9.7 12.9 0.00 0.00 0.00 41 1014.0
20260502214047 11 288 6.4 12.9 0.00 0.00 0.00 43 1014.0
20260502213544 11 2 6.4 9.7 0.00 0.00 0.00 44 1013.8
20260502213042 11 339 9.7 11.3 0.00 0.00 0.00 44 1013.8
20260502212540 11 20 9.7 11.3 0.00 0.00 0.00 45 1013.9
20260502212038 11 296 6.4 9.7 0.00 0.00 0.00 44 1013.9
20260502211533 11 18 11.3 12.9 0.00 0.00 0.00 42 1013.9
20260502211030 11 18 11.3 12.9 0.00 0.00 0.00 42 1014.0
20260502210527 11 327 14.5 17.7 0.00 0.00 0.00 42 1013.9
20260502210024 12 350 11.3 14.5 0.00 0.00 0.00 43 1013.8
20260502205520 12 352 11.3 12.9 0.00 0.00 0.00 41 1013.8
20260502205017 12 319 11.3 12.9 0.00 0.00 0.00 38 1013.8
20260502204515 12 294 9.7 12.9 0.00 0.00 0.00 39 1013.7
20260502204013 12 359 8.0 11.3 0.00 0.00 0.00 42 1013.8
20260502203509 12 329 6.4 9.7 0.00 0.00 0.00 40 1013.8
20260502203006 12 344 6.4 6.4 0.00 0.00 0.00 39 1013.9
20260502202502 12 328 14.5 16.1 0.00 0.00 0.00 39 1013.8
20260502202001 12 301 9.7 12.9 0.00 0.00 0.00 38 1013.8
20260502201456 12 299 3.2 12.9 0.00 0.00 0.00 40 1013.8
20260502200953 12 34 9.7 12.9 0.00 0.00 0.00 39 1013.9
20260502200449 12 329 11.3 12.9 0.00 0.00 0.00 40 1013.9
20260502195947 12 289 6.4 16.1 0.00 0.00 0.00 38 1014.0
20260502195444 13 310 8.0 9.7 0.00 0.00 0.00 37 1013.9
20260502194940 13 246 3.2 3.2 0.00 0.00 0.00 35 1013.9
20260502194437 13 315 6.4 6.4 0.00 0.00 0.00 46 1014.1
20260502193933 12 347 1.6 1.6 0.00 0.00 0.00 39 1014.2
20260502193430 12 340 6.4 12.9 0.00 0.00 0.00 45 1014.2
20260502192925 12 334 14.5 16.1 0.00 0.00 0.00 41 1014.2
20260502192422 12 353 3.2 3.2 0.00 0.00 0.00 44 1014.6
20260502191919 11 295 9.7 11.3 0.00 0.00 0.00 42 1014.4
20260502191417 11 299 8.0 12.9 0.00 0.00 0.00 40 1014.7
20260502190914 11 324 4.8 11.3 0.00 0.00 0.00 42 1014.8
20260502190411 11 288 6.4 6.4 0.00 0.00 0.00 43 1014.8
20260502185908 12 337 3.2 9.7 0.00 0.00 0.00 41 1015.0
20260502185403 11 0 6.4 11.3 0.00 0.00 0.00 39 1014.8
20260502184900 11 330 4.8 9.7 0.00 0.00 0.00 40 1014.9
20260502184355 12 283 6.4 14.5 0.00 0.00 0.00 43 1015.2
20260502183853 12 307 4.8 6.4 0.00 0.00 0.00 46 1015.1
20260502183348 11 307 9.7 14.5 0.00 0.00 0.00 43 1015.2
20260502182843 11 319 11.3 20.9 0.00 0.00 0.00 44 1015.1
20260502182339 12 334 9.7 17.7 0.00 0.00 0.00 40 1015.2
20260502181836 11 328 3.2 4.8 0.00 0.00 0.00 42 1015.2
20260502181335 11 349 6.4 11.3 0.00 0.00 0.00 41 1015.2
20260502180833 12 341 3.2 6.4 0.00 0.00 0.00 44 1015.3
20260502180330 12 321 3.2 6.4 0.00 0.00 0.00 40 1015.4
20260502170248 11 303 9.7 12.9 0.00 0.00 0.00 48 1015.7
20260502164236 11 4 4.8 11.3 0.00 0.00 0.00 49 1015.8
20260502163731 11 339 9.7 14.5 0.00 0.00 0.00 49 1015.9
20260502163228 11 327 3.2 11.3 0.00 0.00 0.00 46 1015.6
20260502162725 11 339 9.7 11.3 0.00 0.00 0.00 48 1015.9
20260502162222 10 288 4.8 16.1 0.00 0.00 0.00 47 1016.1
20260502161719 10 241 1.6 4.8 0.00 0.00 0.00 46 1015.9
20260502161215 11 332 9.7 14.5 0.00 0.00 0.00 46 1016.1
20260502160714 11 274 9.7 12.9 0.00 0.00 0.00 47 1016.2
20260502160213 11 353 6.4 9.7 0.00 0.00 0.00 45 1016.1
20260502152132 10 293 0.0 3.2 0.00 0.00 0.00 53 1016.3
20260502151630 10 342 6.4 9.7 0.00 0.00 0.00 55 1016.3
20260502151127 10 326 3.2 4.8 0.00 0.00 0.00 56 1016.3
20260502150624 10 293 8.0 9.7 0.00 0.00 0.00 57 1016.2
20260502150120 10 333 9.7 17.7 0.00 0.00 0.00 53 1016.2
20260502130509 7 26 1.6 9.7 0.00 0.00 0.00 69 1016.5
20260502123452 7 326 6.4 11.3 0.00 0.00 0.00 70 1016.3
20260502122949 7 318 6.4 14.5 0.00 0.00 0.00 69 1016.6
20260502122445 7 273 6.4 9.7 0.00 0.00 0.00 71 1016.5
20260502121943 6 25 1.6 4.8 0.00 0.00 0.00 70 1016.7
20260502121440 6 10 0.0 0.0 0.00 0.00 0.00 71 1016.8
20260502120938 6 10 3.2 3.2 0.00 0.00 0.00 70 1016.7
20260502120433 6 13 0.0 1.6 0.00 0.00 0.00 72 1016.8
20260502115931 6 4 0.0 0.0 0.00 0.00 0.00 75 1016.8
20260502115428 6 3 0.0 0.0 0.00 0.00 0.00 74 1016.7
20260502114924 5 3 0.0 0.0 0.00 0.00 0.00 78 1016.7
20260502114421 6 3 0.0 1.6 0.00 0.00 0.00 77 1016.6
20260502113918 5 3 1.6 1.6 0.00 0.00 0.00 74 1016.7
20260502113416 5 302 3.2 4.8 0.00 0.00 0.00 77 1016.8
20260502112915 5 311 0.0 1.6 0.00 0.00 0.00 79 1016.8
20260502112411 5 353 0.0 3.2 0.00 0.00 0.00 78 1016.9
20260502111909 5 357 3.2 3.2 0.00 0.00 0.00 76 1016.9
20260502111406 5 321 1.6 3.2 0.00 0.00 0.00 80 1016.9
20260502110903 5 337 1.6 6.4 0.00 0.00 0.00 76 1016.8
20260502110401 3 317 1.6 3.2 0.00 0.00 0.00 82 1016.9
20260502105858 3 332 3.2 3.2 0.00 0.00 0.00 81 1016.7
20260502105355 4 293 3.2 4.8 0.00 0.00 0.00 79 1017.0
20260502104853 4 326 1.6 3.2 0.00 0.00 0.00 80 1016.8
20260502104350 3 14 3.2 3.2 0.00 0.00 0.00 82 1016.8
20260502103847 4 328 4.8 4.8 0.00 0.00 0.00 74 1016.9
20260502103345 4 328 3.2 4.8 0.00 0.00 0.00 81 1017.0
20260502102841 4 349 6.4 11.3 0.00 0.00 0.00 78 1016.9
20260502102338 3 234 0.0 4.8 0.00 0.00 0.00 78 1016.9
20260502101835 4 315 4.8 4.8 0.00 0.00 0.00 78 1017.1
20260502101333 4 295 3.2 3.2 0.00 0.00 0.00 77 1017.0
20260502100831 4 293 3.2 4.8 0.00 0.00 0.00 78 1017.1
20260502100330 3 322 3.2 4.8 0.00 0.00 0.00 80 1016.9
20260502091304 4 291 1.6 4.8 0.00 0.00 0.00 79 1016.9
20260502090802 5 287 3.2 4.8 0.00 0.00 0.00 75 1016.7
20260502090258 4 289 0.0 0.0 0.00 0.00 0.00 77 1016.8
20260502071159 6 321 0.0 1.6 0.00 0.00 0.00 71 1016.4
20260502070657 6 345 4.8 6.4 0.00 0.00 0.00 70 1016.3
20260502070154 6 323 3.2 6.4 0.00 0.00 0.00 71 1016.4
20260502065653 6 329 3.2 4.8 0.00 0.00 0.00 71 1016.4
20260502065150 7 336 8.0 9.7 0.00 0.00 0.00 70 1016.3
20260502064649 7 336 6.4 17.7 0.00 0.00 0.00 69 1016.3
20260502064145 7 291 8.0 14.5 0.00 0.00 0.00 70 1016.3
20260502063643 7 6 4.8 6.4 0.00 0.00 0.00 71 1016.3
20260502063141 7 6 3.2 6.4 0.00 0.00 0.00 71 1016.3
20260502062637 7 334 1.6 6.4 0.00 0.00 0.00 71 1016.0
20260502062135 7 319 6.4 6.4 0.00 0.00 0.00 70 1016.1
20260502061633 7 322 1.6 3.2 0.00 0.00 0.00 70 1016.1
20260502061131 7 316 3.2 6.4 0.00 0.00 0.00 69 1016.3
20260502060630 7 324 4.8 12.9 0.00 0.00 0.00 69 1016.1
20260502060127 7 348 4.8 9.7 0.00 0.00 0.00 69 1015.9
20260502055625 7 342 4.8 6.4 0.00 0.00 0.00 69 1016.2
20260502055123 7 355 14.5 17.7 0.00 0.00 0.00 68 1016.2
20260502054622 7 4 4.8 9.7 0.00 0.00 0.00 69 1016.3
20260502054119 7 306 12.9 20.9 0.00 0.00 0.00 67 1016.3
20260502053616 8 314 9.7 17.7 0.00 0.00 0.00 67 1016.2
20260502053113 8 280 9.7 17.7 0.00 0.00 0.00 67 1016.3
20260502052612 8 336 8.0 17.7 0.00 0.00 0.00 68 1016.5
20260502052110 8 354 9.7 22.5 0.00 0.00 0.00 68 1016.4
20260502051608 8 352 8.0 20.9 0.00 0.00 0.00 68 1016.1
20260502051105 8 349 11.3 14.5 0.00 0.00 0.00 67 1016.1
20260502050601 8 285 11.3 16.1 0.00 0.00 0.00 67 1016.3
20260502050058 8 322 6.4 12.9 0.00 0.00 0.00 67 1016.3
20260502045554 8 309 9.7 16.1 0.00 0.00 0.00 68 1016.2
20260502045052 8 321 4.8 12.9 0.00 0.00 0.00 69 1016.2
20260502044548 8 337 8.0 14.5 0.00 0.00 0.00 68 1015.8
20260502044045 9 327 16.1 24.1 0.00 0.00 0.00 67 1015.8
20260502043543 9 338 17.7 20.9 0.00 0.00 0.00 66 1015.9
20260502043039 9 300 9.7 14.5 0.00 0.00 0.00 69 1015.9
20260502042539 9 322 11.3 17.7 0.00 0.00 0.00 69 1015.9
20260502042037 9 358 3.2 6.4 0.00 0.00 0.00 73 1015.8
20260502041534 9 294 3.2 4.8 0.00 0.00 0.00 73 1015.8
20260502041031 9 349 3.2 6.4 0.00 0.00 0.00 73 1015.9
20260502040527 10 335 1.6 3.2 0.00 0.00 0.00 72 1015.5
20260502040025 10 358 6.4 11.3 0.00 0.00 0.00 70 1015.3
20260502035520 10 9 3.2 11.3 0.00 0.00 0.00 72 1015.5
20260502035018 10 341 4.8 9.7 0.00 0.00 0.00 71 1015.4
20260502034516 10 5 4.8 4.8 0.00 0.00 0.00 71 1015.3
20260502034014 10 303 1.6 3.2 0.00 0.00 0.00 70 1015.4
20260502033512 10 264 1.6 6.4 0.00 0.00 0.00 69 1015.4
20260502033009 10 356 8.0 11.3 0.00 0.00 0.00 69 1015.5
20260502032505 10 285 4.8 4.8 0.00 0.00 0.00 69 1015.4
20260502032002 10 331 4.8 11.3 0.00 0.00 0.00 68 1015.4
20260502031500 10 308 3.2 4.8 0.00 0.00 0.00 68 1015.3
20260502030958 10 328 6.4 11.3 0.00 0.00 0.00 68 1015.3
20260502030456 10 275 3.2 4.8 0.00 0.00 0.00 68 1015.2
20260502025953 10 334 6.4 9.7 0.00 0.00 0.00 67 1015.0
20260502025450 10 214 3.2 6.4 0.00 0.00 0.00 66 1015.0
20260502024948 10 292 1.6 3.2 0.00 0.00 0.00 68 1015.0
20260502024446 11 317 1.6 4.8 0.00 0.00 0.00 65 1015.1
20260502023944 11 281 6.4 9.7 0.00 0.00 0.00 65 1015.2
20260502023441 11 320 3.2 4.8 0.00 0.00 0.00 65 1015.2
20260502022939 11 267 1.6 4.8 0.00 0.00 0.00 64 1015.1
20260502022435 11 269 3.2 9.7 0.00 0.00 0.00 64 1015.2
20260502021932 11 295 4.8 4.8 0.00 0.00 0.00 65 1015.1
20260502021429 11 330 6.4 9.7 0.00 0.00 0.00 64 1014.8
20260502020926 11 265 3.2 4.8 0.00 0.00 0.00 63 1014.9
20260502020425 11 150 4.8 6.4 0.00 0.00 0.00 63 1015.0
20260502015921 11 284 6.4 6.4 0.00 0.00 0.00 64 1015.0
20260502015419 11 275 8.0 11.3 0.00 0.00 0.00 63 1014.8
20260502014915 11 248 3.2 6.4 0.00 0.00 0.00 63 1014.9
20260502014412 11 284 1.6 9.7 0.00 0.00 0.00 63 1015.0
20260502013908 11 303 6.4 11.3 0.00 0.00 0.00 63 1014.9
20260502013404 11 317 9.7 14.5 0.00 0.00 0.00 64 1014.7
20260502012901 11 263 6.4 11.3 0.00 0.00 0.00 64 1015.0
20260502012359 11 302 4.8 4.8 0.00 0.00 0.00 66 1014.8
20260502011856 11 261 3.2 11.3 0.00 0.00 0.00 65 1014.8
20260502011352 11 326 3.2 6.4 0.00 0.00 0.00 68 1014.7
20260502010849 11 350 9.7 11.3 0.00 0.00 0.00 65 1014.6
20260502010346 12 339 4.8 9.7 0.00 0.00 0.00 66 1014.4
20260502005842 12 348 9.7 11.3 0.00 0.00 0.00 64 1014.3
20260502005340 12 344 6.4 11.3 0.00 0.00 0.00 63 1014.0
20260502004837 12 329 4.8 4.8 0.00 0.00 0.00 64 1013.7
20260502004333 12 345 6.4 9.7 0.00 0.00 0.00 62 1013.7
20260502003831 12 308 8.0 12.9 0.00 0.00 0.00 62 1013.5
20260502003328 12 328 6.4 14.5 0.00 0.00 0.00 61 1013.2
20260502002824 12 355 6.4 6.4 0.00 0.00 0.00 61 1013.0
20260502002322 12 354 8.0 12.9 0.00 0.00 0.00 60 1013.0
20260502001819 12 357 4.8 4.8 0.00 0.00 0.00 60 1012.5
20260502001317 12 7 9.7 12.9 0.00 0.00 0.00 58 1012.6
20260502000814 12 355 4.8 11.3 0.00 0.00 0.00 58 1012.8
20260502000312 13 48 8.0 11.3 0.00 0.00 0.00 55 1012.3
20260501235808 13 318 12.9 20.9 0.00 0.00 0.00 51 1012.2
20260501235305 14 304 6.4 9.7 0.00 0.00 0.00 50 1012.3
20260501234759 14 18 12.9 17.7 0.00 0.00 0.00 50 1012.3
20260501234257 14 314 6.4 17.7 0.00 0.00 0.00 50 1012.0
20260501233755 14 346 11.3 25.7 0.00 0.00 0.00 47 1011.6
20260501233252 15 16 3.2 11.3 0.00 0.00 0.00 48 1011.4
20260501232747 15 16 9.7 17.7 0.00 0.00 0.00 45 1011.3
20260501232245 15 287 17.7 25.7 0.00 0.00 0.00 42 1011.7
20260501231742 16 299 6.4 9.7 0.00 0.00 0.00 41 1011.3
20260501231240 16 272 9.7 16.1 0.00 0.00 0.00 38 1011.0
20260501230738 17 325 4.8 11.3 0.00 0.00 0.00 39 1011.2
20260501230237 17 332 4.8 11.3 0.00 0.00 0.00 39 1010.7
20260501225734 17 290 4.8 12.9 0.00 0.00 0.00 40 1010.7
20260501225231 17 254 1.6 3.2 0.00 0.00 0.00 46 1010.5
20260501224727 18 296 0.0 1.6 0.00 0.00 0.00 39 1010.6
20260501224225 18 14 3.2 4.8 0.00 0.00 0.00 40 1010.8
20260501223721 17 271 0.0 1.6 0.00 0.00 0.00 41 1010.8
20260501223218 16 356 1.6 3.2 0.00 0.00 0.00 57 1010.7
20260501222714 17 200 0.0 1.6 0.00 0.00 0.00 42 1010.5
20260501222211 16 281 0.0 0.0 0.00 0.00 0.00 52 1010.4
20260501221707 16 281 0.0 1.6 0.00 0.00 0.00 56 1010.6